Regional Weather Roundup
Issued by NWS

Home | Current Version | Previous Version | Text Only | Print | Product List | Glossary Off
Versions: 1 2 3 4 5 6 7 8 9 10 11 12 13 14 15 16 17 18 19 20 21 22 23 24 25 26 27 28 29 30 31 32 33 34 35 36 37 38 39 40 41 42 43 44 45 46 47 48 49 50

059
ASUS43 KLOT 190102
RWRIL

ILLINOIS REGIONAL WEATHER ROUNDUP
NATIONAL WEATHER SERVICE CHICAGO/ROMEOVILLE IL
700 PM CST WED JAN 18 2017

NOTE: "FAIR" INDICATES FEW OR NO CLOUDS BELOW 12,000 FEET WITH NO
SIGNIFICANT WEATHER AND/OR OBSTRUCTIONS TO VISIBILITY.

* THESE STATIONS ARE NOT UNDER NWS QUALITY CONTROL. THEY ALSO MAY NOT
  REPORT WEATHER SUCH AS PRECIPITATION OR FOG.

ILZ001-002-007-009-015-016-024-190200-
NORTHWEST ILLINOIS

CITY           SKY/WX    TMP DP  RH WIND       PRES   REMARKS
MOLINE         CLEAR     31  28  89 E3        30.05S FOG
STERLING*      MOCLDY    34  32  92 SE5       30.08S WCI  30
SAVANNA*       CLOUDY    30  29  99 CALM      30.06S FOG
$$

ILZ003-004-008-010-011-017-018-190200-
NORTH CENTRAL ILLINOIS

CITY           SKY/WX    TMP DP  RH WIND       PRES   REMARKS
ROCKFORD       CLOUDY    34  31  88 SW8       30.09R WCI  27
FREEPORT*      CLOUDY    33  32  96 S6        30.08S FOG     WCI  27
ROCHELLE*      CLOUDY    33  32  96 SW8       30.09S FOG     WCI  26
DE KALB*       CLOUDY    33  32  95 SW9       30.08S FOG     WCI  26
$$

ILZ005-006-012>014-019>023-190200-
NORTHEAST ILLINOIS

CITY           SKY/WX    TMP DP  RH WIND       PRES   REMARKS
CHICAGO-OHARE  CLOUDY    35  32  88 SW10G17   30.07F WCI  27
CHICAGO-MIDWAY CLOUDY    35  31  85 SW14      30.09F WCI  26
AURORA         CLOUDY    37  33  85 S8        30.09R WCI  31
LANSING*       CLOUDY    36  35  94 SW10G18   30.11S WCI  29
JOLIET*        CLOUDY    37  34  89 S8        30.11S WCI  31
WAUKEGAN       CLOUDY    34  31  88 SW10      30.04F WCI  26
DUPAGE AIRPORT CLOUDY    36  31  82 SW10      30.07S WCI  28
KANKAKEE*      CLOUDY    37  34  88 CALM      30.12F
WHEELING       CLOUDY    35  31  85 SW7       30.07F WCI  29
MORRIS*        CLOUDY    36  33  88 SW5       30.10S WCI  32
ROMEOVILLE*    CLOUDY    35  35  99 SW10      30.10S WCI  27
NORTHERLY ISL    N/A     37  32  82 SW7         N/A  WCI  32
$$

LMZ740>746-190200-
SOUTHERN LAKE MICHIGAN

STATION/POSITION SKY/WX   TEMP    WIND        PRES    VSBY  WAVE
                          AIR SEA DIR/SP/G                  HT/PER
                          (F)     (DEG/KT/KT) (MB)    (MI)  (FT/S)
HARRISON CRIB              37     220/ 16/ 18   N/A
BURNHAM HARBOR             36     190/  7/ 11   N/A
CALUMET HARBOR             36     220/  5/ 10 1018.3F
BURNS HARBOR               37     220/  9/ 12 1019.6F
$$

ILZ025>027-034>036-040-047-049-050-058-095>099-190200-
WEST-CENTRAL ILLINOIS

CITY           SKY/WX    TMP DP  RH WIND       PRES   REMARKS
QUINCY         CLEAR     37  34  89 S3        30.05S
GALESBURG*     CLEAR     31  31 100 CALM      30.07S FOG
MACOMB*        CLEAR     36  34  93 CALM      30.08F
JACKSONVILLE*  CLOUDY    39  34  81 S3        30.08S
PITTSFIELD*    CLOUDY    36  33  88 S7        30.08S WCI  31
$$

ILZ028>032-037-038-041>044-048-051>054-059>061-190200-
CENTRAL ILLINOIS

CITY           SKY/WX    TMP DP  RH WIND       PRES   REMARKS
BLOOMINGTON    CLOUDY    35  34  96 S6        30.10S WCI  30
DECATUR        CLOUDY    36  35  96 S6        30.11R WCI  31
PEORIA         CLEAR     34  33  96 CALM      30.08F FOG
LACON*         CLOUDY    29  28  97 CALM      30.09S FOG
LINCOLN*       CLOUDY    32  31  96 CALM      30.10R FOG
SPRINGFIELD    CLOUDY    37  34  89 S7        30.09R WCI  32
TAYLORVILLE    CLOUDY    38  35  88 S7        30.10S WCI  33
$$

ILZ033-039-045-046-055>057-062-063-190200-
EAST-CENTRAL ILLINOIS

CITY           SKY/WX    TMP DP  RH WIND       PRES   REMARKS
CHAMPAIGN      CLOUDY    35  32  88 SE6       30.12R WCI  30
RANTOUL*       CLOUDY    35  34  96 S6        30.12R WCI  30
MATTOON        CLOUDY    36  34  92 S6        30.12R WCI  31
PARIS*         CLOUDY    37  35  93 S6        30.15R WCI  32
$$

ILZ079-100>102-190200-
SOUTHWEST ILLINOIS

CITY           SKY/WX    TMP DP  RH WIND       PRES   REMARKS
ALTON          MOCLDY    39  34  81 S8        30.11S WCI  34
BELLEVILLE     CLOUDY    41  38  91 CALM      30.09F
CAHOKIA*       CLOUDY    43  35  73 SE8       30.09F
SPARTA*        CLOUDY    41  37  84 CALM      30.12S
$$

ILZ064>066-069>071-074>076-080>082-084>086-088>090-092>094-190200-
SOUTH-CENTRAL ILLINOIS

CITY           SKY/WX    TMP DP  RH WIND       PRES   REMARKS
CARBONDALE     CLOUDY    42  39  89 S6        30.13R
CAIRO*         CLOUDY    42  40  93 CALM      30.14R
EFFINGHAM*     CLOUDY    38  37  95 E5        30.13F WCI  35
MARION         CLOUDY    43  39  87 CALM      30.14R
MT. VERNON     MOCLDY    40  37  89 S3        30.13S
CENTRALIA*     CLOUDY    41  38  87 S3        30.11F
SALEM*         CLOUDY    43  36  75 CALM      30.12F
METROPOLIS*    CLOUDY    42  39  89 CALM      30.13S
$$

ILZ067-068-072-073-078-083-087-091-190200-
SOUTHEAST ILLINOIS

CITY           SKY/WX    TMP DP  RH WIND       PRES   REMARKS
LAWRENCEVILLE  MOCLDY    39  37  92 E3        30.14F
FLORA*         CLOUDY    39  37  90 SE5       30.13S
FAIRFIELD*     MOCLDY    40  37  87 CALM      30.12S
HARRISBURG*    CLOUDY    42  40  93 CALM      30.14S
ROBINSON*      CLOUDY    38  35  89 S3        30.16R
CARMI*         PTCLDY    39  38  95 SE5       30.13F
$$

ABBREVIATIONS USED IN REMARKS
   TC - TEMPERATURE IN CELSIUS
  WCI - WIND CHILL INDEX
   HX - HEAT INDEX
  VSB - VISIBILITY
$$





USA.gov is the U.S. government's official web portal to all federal, state and local government web resources and services.